Aeroporto :
LOGIN :

Iscrizione | Disclaimer

   EN    FR    IT 

 










Sommario :    VFR   VFR Marginale   IFR   IFR Intensivo   IFR Molto Intensivo
Visibilità : 
Base nubi : 
>= 8 km
>= 3000ft
5 / 8 km
1000 / 3000 ft
1500m / 5 km
500 / 1000 ft
800 / 1500m
200 / 500 ft
< 800m
< 200 ft
Simboli :   Temporali  Nebbia  Neve Forte  Precipitazioni Forti  Vento > 20 kt
SIGMETs :   Varie  Temporali  Ghiacco  Turbolenza  Onda orograficha  Ceneri Vulcaniche






- Altitudine del aeroporto : 404 ft
- Codice IATA : WRO


EPWR - Wroclaw

ULTIMO METAR :
  • 041600Z 32006KT CAVOK 12/M03 Q1026

METARs OBSOLETI :
  • 041530Z 33005KT 270V040 CAVOK 12/M03 Q1026
  • 041500Z 31005KT 210V340 CAVOK 12/M03 Q1026
  • 041430Z 30004KT 240V330 CAVOK 12/M03 Q1026
  • 041400Z 31005KT 280V040 CAVOK 13/M03 Q1026
  • 041330Z 31007KT 260V060 CAVOK 13/M03 Q1026

TAF TAF EPWR
Valido dal 04 a 15 ore il 05 a 15 ore UTC


041430Z 0415/0515 31005KT CAVOK
BECMG 0506/0509 13010KT



MetMap, La meteo Aeronautica in un colpo d'occhio ! - Copyright ORBIFLY Dicembre 2007 - Disclaimer

ORBIFLY MET'MAP TEAM :

Programmazione e sviluppo : Alexandra Zaïnal
Concezione : Baudouin d'Aumeries
Aiuto per la programmazione : Marc-Olivier Méhu
Supporto tecnico e logistico : Manuel Goepfert
Aiuto per la traduzione : Arnaldo La Scala

Contatto : metmap@orbifly.com




FONTI E CREDITI :

   NOAA